Change the Weather History Date:

Tuesday, January 30, 2007

  Actual Average Record
Temperature  
Mean Temperature 42 °F 49 °F  
Max Temperature 50 °F 60 °F 80 °F (1950)
Min Temperature 33 °F 37 °F 9 °F (1966)
Degree Days  
Heating Degree Days 24 17  
Month to date heating degree days 503  
Since 1 July heating degree days 1288  
Cooling Degree Days 0 0  
Month to date cooling degree days 0  
Year to date cooling degree days 0  
Moisture  
Dew Point 31 °F    
Average Humidity 65    
Maximum Humidity 79    
Minimum Humidity 41    
Precipitation  
Precipitation 0.00 in 0.22 in 9.85 in (1999)
Month to date precipitation 5.52  
Year to date precipitation 5.52  
Sea Level Pressure  
Sea Level Pressure 30.24 in    
Wind  
Wind Speed 1 mph (NNW)    
Max Wind Speed 6 mph    
Max Gust Speed -    
Visibility 10 miles    
Events      
T = Trace of Precipitation, MM = Missing Value Source: NWS Daily Summary

Daily Weather History Graph

Daily Weather History Graph

Search for Another Location

Airport or City:

Trip Planner

Search our weather history database for the weather conditions in past years. The results will help you decide how hot, cold, wet, or windy it might be!

Date:

Astronomy

Jan. 30, 2007 Rise Set
Actual Time 6:50 AM CST 5:30 PM CST
Civil Twilight 6:25 AM CST 5:55 PM CST
Nautical Twilight 5:56 AM CST 6:24 PM CST
Astronomical Twilight 5:27 AM CST 6:53 PM CST
Moon 3:01 PM CST (1/30) 5:07 AM CST (1/30)
Length of Visible Light 11h 30m
Length of Day
10h 39m
Waxing Gibbous, 93% of the Moon is Illuminated
Jan 30
Waxing Gibbous
Feb 1
Full
Feb 10
Last Quarter
Feb 17
New
Feb 24
First Quarter

Hourly Weather History & Observations

Time (CST) Temp. Windchill Dew Point Humidity Pressure Visibility Wind Dir Wind Speed Gust Speed Precip Events Conditions
12:53 AM 33.1 °F - 27.0 °F 78% 30.26 in 10.0 mi Calm Calm - N/A   Clear
1:53 AM 34.0 °F - 28.0 °F 79% 30.25 in 10.0 mi Calm Calm - N/A   Clear
2:53 AM 36.0 °F - 28.0 °F 73% 30.26 in 10.0 mi Calm Calm - N/A   Overcast
3:53 AM 37.9 °F - 27.0 °F 65% 30.25 in 10.0 mi Calm Calm - N/A   Overcast
4:53 AM 37.9 °F - 30.0 °F 73% 30.24 in 10.0 mi Calm Calm - N/A   Overcast
5:53 AM 37.0 °F - 30.0 °F 76% 30.24 in 10.0 mi Calm Calm - N/A   Overcast
6:53 AM 37.0 °F - 30.0 °F 76% 30.24 in 10.0 mi Calm Calm - N/A   Overcast
7:53 AM 37.9 °F 35.5 °F 30.9 °F 76% 30.25 in 10.0 mi NE 3.5 mph - N/A   Overcast
8:53 AM 39.9 °F - 33.1 °F 77% 30.27 in 10.0 mi Calm Calm - N/A   Overcast
9:53 AM 45.0 °F - 32.0 °F 60% 30.28 in 10.0 mi Calm Calm - N/A   Overcast
10:53 AM 46.9 °F - 32.0 °F 56% 30.30 in 10.0 mi Calm Calm - N/A   Overcast
11:53 AM 48.9 °F - 27.0 °F 43% 30.27 in 10.0 mi Calm Calm - N/A   Overcast
12:53 PM 50.0 °F - 27.0 °F 41% 30.23 in 10.0 mi NW 5.8 mph - N/A   Overcast
1:53 PM 50.0 °F - 28.9 °F 44% 30.21 in 10.0 mi NNW 5.8 mph - N/A   Overcast
2:53 PM 48.9 °F - 35.1 °F 59% 30.21 in 10.0 mi Variable 5.8 mph - 0.00 in   Overcast
3:53 PM 48.0 °F - 35.1 °F 61% 30.21 in 10.0 mi WNW 5.8 mph - 0.00 in   Mostly Cloudy
4:53 PM 48.0 °F - 37.0 °F 66% 30.21 in 10.0 mi NW 5.8 mph - N/A   Overcast
5:53 PM 46.9 °F - 37.0 °F 68% 30.21 in 10.0 mi Calm Calm - N/A   Overcast
6:53 PM 46.0 °F - 37.9 °F 73% 30.22 in 10.0 mi Calm Calm - 0.00 in   Overcast
7:53 PM 46.9 °F - 37.0 °F 68% 30.23 in 10.0 mi NNW 3.5 mph - N/A   Overcast
9:53 PM 44.1 °F 42.5 °F 34.0 °F 68% 30.25 in 10.0 mi NNW 3.5 mph - N/A   Mostly Cloudy
10:53 PM 41.0 °F 38.0 °F 30.9 °F 67% 30.27 in 10.0 mi North 4.6 mph - N/A   Clear
11:53 PM 39.9 °F 35.8 °F 26.1 °F 58% 30.26 in 10.0 mi North 5.8 mph - N/A   Clear